DLH3MA KEWR-EDDF

Flight info

Callsign DLH3MA
Flight time N/A
Altitude 35000
Route GREKI DCT JUDDS DCT MARTN DCT CBIRD DCT TAFFY N741B LOMSI/M083F370 DCT 55N050W 56N040W 57N030W 57N020W DCT PIKIL DCT SOVED/N0480F370 DCT LUTOV DCT BELOX/N0474F390 L603 DOLAS DCT NAVPI DCT NOLRU DCT DIXAT DIXAT1A
Aircraft A346/H-SDE2E3FGHIJ3J4J5M1RWXY/LB1D1

Departure

Time 2026-05-07 03:56
Airport Newark Liberty International Airport (KEWR)

Arrival

Time N/A
Airport Frankfurt Main Airport (EDDF)
Time Latitude Longitude Altitude Speed Heading
2026-05-07 03:40 40.68926 -74.17536 35 ft 0 kts 25°
2026-05-07 03:48 40.68918 -74.17541 35 ft 2 kts 25°
2026-05-07 03:48 40.68904 -74.17549 35 ft 2 kts 28°
2026-05-07 03:48 40.68892 -74.17561 35 ft 2 kts 54°
2026-05-07 03:49 40.68885 -74.17579 35 ft 2 kts 75°
2026-05-07 03:49 40.68883 -74.17599 35 ft 2 kts 95°
2026-05-07 03:49 40.68886 -74.17617 35 ft 0 kts 114°
2026-05-07 03:49 40.68885 -74.17614 35 ft 2 kts 113°
2026-05-07 03:50 40.68870 -74.17569 35 ft 5 kts 116°
2026-05-07 03:50 40.68863 -74.17548 35 ft 0 kts 116°
2026-05-07 03:51 40.68861 -74.17544 35 ft 4 kts 116°
2026-05-07 03:51 40.68827 -74.17451 35 ft 14 kts 115°
2026-05-07 03:52 40.68793 -74.17333 35 ft 7 kts 80°
2026-05-07 03:52 40.68850 -74.17273 35 ft 13 kts 28°
2026-05-07 03:52 40.68952 -74.17207 35 ft 18 kts 26°
2026-05-07 03:52 40.69082 -74.17124 35 ft 22 kts 26°
2026-05-07 03:53 40.69238 -74.17026 35 ft 26 kts 26°
2026-05-07 03:53 40.69414 -74.16913 35 ft 29 kts 26°
2026-05-07 03:53 40.69608 -74.16790 35 ft 32 kts 26°
2026-05-07 03:53 40.69814 -74.16659 35 ft 29 kts 25°
2026-05-07 03:54 40.69960 -74.16567 35 ft 24 kts 26°
2026-05-07 03:54 40.70128 -74.16479 35 ft 27 kts
2026-05-07 03:54 40.70266 -74.16451 35 ft 9 kts 47°
2026-05-07 03:54 40.70288 -74.16351 35 ft 14 kts 65°
2026-05-07 03:55 40.70319 -74.16237 35 ft 10 kts 109°
2026-05-07 03:55 40.70266 -74.16216 35 ft 10 kts 214°
2026-05-07 03:55 40.70117 -74.16312 35 ft 56 kts 206°
2026-05-07 03:55 40.69515 -74.16690 35 ft 132 kts 206°
2026-05-07 03:56 40.68489 -74.17341 36 ft 192 kts 206°
2026-05-07 03:56 40.67181 -74.18153 349 ft 219 kts 207°
2026-05-07 03:56 40.65727 -74.18904 1185 ft 227 kts 210°
2026-05-07 03:56 40.64493 -74.20150 2079 ft 226 kts 235°
2026-05-07 03:57 40.63332 -74.21665 2863 ft 243 kts 222°
2026-05-07 03:57 40.62129 -74.23258 3417 ft 249 kts 247°
2026-05-07 03:57 40.61844 -74.25427 4269 ft 243 kts 283°
2026-05-07 03:57 40.62628 -74.27296 5242 ft 244 kts 315°
2026-05-07 03:58 40.64208 -74.28275 5954 ft 265 kts 346°
2026-05-07 03:58 40.66096 -74.28188 6598 ft 287 kts
2026-05-07 03:58 40.67945 -74.27015 7209 ft 307 kts 38°
2026-05-07 03:58 40.69491 -74.25051 7877 ft 316 kts 41°
2026-05-07 03:59 40.71064 -74.22987 8518 ft 324 kts 40°
2026-05-07 03:59 40.72702 -74.20921 9210 ft 329 kts 40°
2026-05-07 03:59 40.74400 -74.18842 9891 ft 335 kts 39°
2026-05-07 03:59 40.76140 -74.16753 10521 ft 344 kts 38°
2026-05-07 04:00 40.77945 -74.14617 10908 ft 361 kts 38°
2026-05-07 04:00 40.79861 -74.12363 11264 ft 379 kts 38°
2026-05-07 04:00 40.81879 -74.09993 11606 ft 398 kts 39°
2026-05-07 04:00 40.83982 -74.07517 11929 ft 416 kts 38°
2026-05-07 04:01 40.86191 -74.04907 12299 ft 432 kts 38°
2026-05-07 04:01 40.88440 -74.02252 12967 ft 439 kts 39°
2026-05-07 04:01 40.90750 -73.99525 13736 ft 442 kts 38°
2026-05-07 04:01 40.93045 -73.96806 14511 ft 445 kts 38°
2026-05-07 04:02 40.95354 -73.94070 15180 ft 450 kts 38°
2026-05-07 04:02 40.97686 -73.91309 15870 ft 454 kts 38°
2026-05-07 04:02 41.00058 -73.88497 16575 ft 458 kts 38°
2026-05-07 04:02 41.02431 -73.85681 17265 ft 462 kts 38°
2026-05-07 04:03 41.04808 -73.82855 17937 ft 465 kts 37°
2026-05-07 04:03 41.07214 -73.79993 18565 ft 470 kts 37°
2026-05-07 04:03 41.09670 -73.77071 19123 ft 476 kts 37°
2026-05-07 04:03 41.12136 -73.74142 19623 ft 483 kts 36°
2026-05-07 04:04 41.14660 -73.71146 20156 ft 488 kts 36°
2026-05-07 04:04 41.17189 -73.68142 20673 ft 494 kts 35°
2026-05-07 04:04 41.19772 -73.65070 21143 ft 501 kts 35°
2026-05-07 04:04 41.22366 -73.61972 21608 ft 508 kts 35°
2026-05-07 04:05 41.24994 -73.58826 22129 ft 512 kts 35°
2026-05-07 04:05 41.27629 -73.55666 22636 ft 517 kts 34°
2026-05-07 04:05 41.30324 -73.52438 23049 ft 524 kts 34°
2026-05-07 04:05 41.33047 -73.49165 23531 ft 529 kts 34°
2026-05-07 04:06 41.35789 -73.45869 24021 ft 534 kts 34°
2026-05-07 04:06 41.38531 -73.42568 24450 ft 540 kts 33°
2026-05-07 04:06 41.41316 -73.39201 24928 ft 544 kts 33°
2026-05-07 04:06 41.44097 -73.35842 25460 ft 546 kts 33°
2026-05-07 04:07 41.46939 -73.32408 25869 ft 551 kts 34°
2026-05-07 04:07 41.49765 -73.28909 26176 ft 560 kts 36°
2026-05-07 04:07 41.52596 -73.25269 26474 ft 568 kts 36°
2026-05-07 04:07 41.55430 -73.21549 26874 ft 572 kts 37°
2026-05-07 04:08 41.58237 -73.17799 27366 ft 574 kts 37°
2026-05-07 04:08 41.61173 -73.14419 27913 ft 555 kts 23°
2026-05-07 04:08 41.64582 -73.12218 28202 ft 528 kts
2026-05-07 04:08 41.68066 -73.11419 28453 ft 500 kts 347°
2026-05-07 04:09 41.71472 -73.11763 28793 ft 481 kts 338°
2026-05-07 04:09 41.74764 -73.12409 29517 ft 474 kts 336°
2026-05-07 04:09 41.77968 -73.13022 30621 ft 459 kts 336°
2026-05-07 04:09 41.81074 -73.13597 31502 ft 448 kts 336°
2026-05-07 04:10 41.84144 -73.14162 31951 ft 447 kts 336°
2026-05-07 04:10 41.87235 -73.14728 32305 ft 448 kts 336°
2026-05-07 04:10 41.90318 -73.15281 32652 ft 448 kts 336°
2026-05-07 04:10 41.93376 -73.15817 33064 ft 447 kts 336°
2026-05-07 04:11 41.96476 -73.16354 33484 ft 445 kts 335°
2026-05-07 04:11 41.99543 -73.16884 33825 ft 445 kts 335°
2026-05-07 04:11 42.02609 -73.17412 34205 ft 444 kts 335°
2026-05-07 04:11 42.05646 -73.17937 34643 ft 440 kts 335°
2026-05-07 04:12 42.08689 -73.18462 34662 ft 438 kts 335°
2026-05-07 04:12 42.14850 -73.19532 34669 ft 451 kts 336°
2026-05-07 04:13 42.21157 -73.20615 34661 ft 456 kts 336°
2026-05-07 04:13 42.27430 -73.21677 34664 ft 453 kts 336°
2026-05-07 04:14 42.33676 -73.22759 34660 ft 454 kts 336°
2026-05-07 04:14 42.39964 -73.23860 34666 ft 457 kts 336°
2026-05-07 04:15 42.46285 -73.24953 34667 ft 455 kts 336°
2026-05-07 04:15 42.49456 -73.25420 34664 ft 466 kts 340°
2026-05-07 04:15 42.52734 -73.25438 34668 ft 482 kts 348°
2026-05-07 04:15 42.56108 -73.24915 34670 ft 497 kts 355°
2026-05-07 04:16 42.59597 -73.23799 34674 ft 519 kts
2026-05-07 04:16 42.63030 -73.22055 34669 ft 536 kts 11°
2026-05-07 04:16 42.66342 -73.19686 34667 ft 555 kts 20°
2026-05-07 04:17 42.72786 -73.13801 34668 ft 562 kts 23°
2026-05-07 04:17 42.79199 -73.07695 34657 ft 558 kts 23°
2026-05-07 04:18 42.85590 -73.01722 34650 ft 562 kts 23°
2026-05-07 04:18 42.92024 -72.95732 34641 ft 556 kts 22°
2026-05-07 04:19 42.98436 -72.89780 34644 ft 560 kts 23°
2026-05-07 04:19 43.04826 -72.83820 34642 ft 555 kts 22°
2026-05-07 04:20 43.11220 -72.77865 34627 ft 558 kts 23°
2026-05-07 04:20 43.17612 -72.71899 34629 ft 557 kts 24°
2026-05-07 04:21 43.27174 -72.62927 34630 ft 554 kts 24°
2026-05-07 04:21 43.33535 -72.56933 34627 ft 553 kts 23°
2026-05-07 04:22 43.39829 -72.50984 34627 ft 552 kts 24°
2026-05-07 04:22 43.46117 -72.45026 34631 ft 548 kts 24°
2026-05-07 04:23 43.52373 -72.39080 34627 ft 547 kts 24°
2026-05-07 04:23 43.58652 -72.33102 34620 ft 549 kts 25°
2026-05-07 04:24 43.64936 -72.27081 34630 ft 550 kts 26°
2026-05-07 04:24 43.71211 -72.21049 34627 ft 550 kts 26°
2026-05-07 04:25 43.77466 -72.15037 34624 ft 548 kts 26°
2026-05-07 04:25 43.83721 -72.09019 34612 ft 546 kts 26°
2026-05-07 04:26 43.89977 -72.02987 34610 ft 546 kts 26°
2026-05-07 04:26 43.96173 -71.96993 34610 ft 546 kts 26°
2026-05-07 04:27 44.02399 -71.90963 34609 ft 546 kts 26°
2026-05-07 04:27 44.08575 -71.84956 34608 ft 546 kts 26°
2026-05-07 04:28 44.14757 -71.78943 34611 ft 542 kts 27°
2026-05-07 04:28 44.20930 -71.72935 34586 ft 541 kts 27°
2026-05-07 04:29 44.27108 -71.66901 34570 ft 544 kts 27°
2026-05-07 04:29 44.33121 -71.60987 34568 ft 541 kts 27°
2026-05-07 04:30 44.39262 -71.54929 34557 ft 540 kts 28°
2026-05-07 04:30 44.45406 -71.48874 34680 ft 538 kts 28°
2026-05-07 04:31 44.51511 -71.42825 34685 ft 537 kts 28°
2026-05-07 04:31 44.57577 -71.36803 34679 ft 536 kts 28°
2026-05-07 04:32 44.63645 -71.30752 34678 ft 535 kts 30°
2026-05-07 04:32 44.69695 -71.24686 34675 ft 535 kts 29°
2026-05-07 04:33 44.75623 -71.18757 34663 ft 536 kts 30°
2026-05-07 04:33 44.81664 -71.12669 34662 ft 537 kts 32°
2026-05-07 04:34 44.87374 -71.05809 34654 ft 542 kts 40°
2026-05-07 04:34 44.92711 -70.98322 34667 ft 540 kts 41°
2026-05-07 04:35 44.97973 -70.90833 34674 ft 539 kts 41°
2026-05-07 04:35 45.03240 -70.83367 34678 ft 540 kts 41°
2026-05-07 04:36 45.08519 -70.75881 34688 ft 538 kts 41°
2026-05-07 04:36 45.13788 -70.68434 34700 ft 536 kts 41°
2026-05-07 04:37 45.19047 -70.60990 34713 ft 536 kts 42°
2026-05-07 04:37 45.24314 -70.53489 34733 ft 535 kts 42°
2026-05-07 04:38 45.29505 -70.46062 34746 ft 532 kts 42°
2026-05-07 04:38 45.34709 -70.38599 34767 ft 531 kts 42°
2026-05-07 04:39 45.39886 -70.31139 34778 ft 531 kts 44°
2026-05-07 04:39 45.45050 -70.23656 34768 ft 531 kts 44°
2026-05-07 04:40 45.50183 -70.16207 34774 ft 530 kts 44°
2026-05-07 04:40 45.55351 -70.08704 34791 ft 530 kts 44°
2026-05-07 04:41 45.60482 -70.01243 34793 ft 529 kts 44°
2026-05-07 04:41 45.65620 -69.93750 34791 ft 527 kts 44°
2026-05-07 04:42 45.70724 -69.86279 34784 ft 527 kts 44°
2026-05-07 04:42 45.75827 -69.78790 34796 ft 527 kts 44°
2026-05-07 04:43 45.80918 -69.71300 34817 ft 525 kts 45°
2026-05-07 04:43 45.85984 -69.63826 34830 ft 524 kts 45°
2026-05-07 04:44 45.91050 -69.56327 34834 ft 524 kts 45°
2026-05-07 04:44 45.96102 -69.48835 34856 ft 522 kts 45°
2026-05-07 04:45 46.01165 -69.41304 34867 ft 522 kts 45°
2026-05-07 04:45 46.06066 -69.33989 34875 ft 522 kts 46°
2026-05-07 04:46 46.11100 -69.26426 34905 ft 523 kts 46°
2026-05-07 04:46 46.16141 -69.18896 34937 ft 523 kts 46°
2026-05-07 04:47 46.21160 -69.11361 34947 ft 522 kts 46°
2026-05-07 04:47 46.26172 -69.03809 34963 ft 522 kts 46°
2026-05-07 04:48 46.31170 -68.96251 35012 ft 522 kts 46°
2026-05-07 04:48 46.36056 -68.88834 35018 ft 522 kts 46°
2026-05-07 04:49 46.41024 -68.81277 35066 ft 520 kts 47°
2026-05-07 04:49 46.45989 -68.73699 35075 ft 520 kts 47°
2026-05-07 04:50 46.50959 -68.66097 35100 ft 519 kts 47°
2026-05-07 04:50 46.55927 -68.58473 35112 ft 519 kts 47°
2026-05-07 04:51 46.60839 -68.50914 35147 ft 519 kts 47°
2026-05-07 04:51 46.65802 -68.43257 35176 ft 519 kts 47°
2026-05-07 04:52 46.70734 -68.35619 35184 ft 519 kts 47°
2026-05-07 04:52 46.75560 -68.28113 35210 ft 519 kts 49°
2026-05-07 04:53 46.80461 -68.20458 35230 ft 517 kts 49°
2026-05-07 04:53 46.85222 -68.13018 35247 ft 517 kts 49°
2026-05-07 04:54 46.90135 -68.05328 35275 ft 518 kts 49°
2026-05-07 04:54 46.95034 -67.97635 35288 ft 518 kts 49°
2026-05-07 04:55 46.99921 -67.89951 35304 ft 517 kts 49°
2026-05-07 04:55 47.04826 -67.82202 35310 ft 518 kts 49°
2026-05-07 04:56 47.09592 -67.74654 35315 ft 518 kts 49°
2026-05-07 04:56 47.14460 -67.66964 35312 ft 518 kts 49°
2026-05-07 04:57 47.19333 -67.59246 35318 ft 518 kts 50°
2026-05-07 04:57 47.24210 -67.51460 35325 ft 519 kts 50°
2026-05-07 04:58 47.29109 -67.43610 35325 ft 519 kts 50°
2026-05-07 04:58 47.33980 -67.35788 35331 ft 520 kts 50°
2026-05-07 04:59 47.38877 -67.27937 35337 ft 521 kts 49°
2026-05-07 04:59 47.43901 -67.20309 35339 ft 521 kts 48°
2026-05-07 05:00 47.48954 -67.12685 35344 ft 523 kts 49°
2026-05-07 05:00 47.53962 -67.05085 35348 ft 523 kts 49°
2026-05-07 05:01 47.59022 -66.97366 35347 ft 523 kts 49°
2026-05-07 05:01 47.64079 -66.89617 35363 ft 524 kts 49°
2026-05-07 05:02 47.69104 -66.81898 35378 ft 523 kts 49°
2026-05-07 05:02 47.74142 -66.74139 35387 ft 525 kts 49°
2026-05-07 05:03 47.79180 -66.66349 35413 ft 525 kts 49°
2026-05-07 05:03 47.84223 -66.58534 35266 ft 524 kts 49°
2026-05-07 05:04 47.89275 -66.50684 35287 ft 526 kts 49°
2026-05-07 05:04 47.94303 -66.42835 35309 ft 527 kts 49°
2026-05-07 05:05 47.99373 -66.34911 35327 ft 528 kts 49°
2026-05-07 05:05 48.04385 -66.27024 35349 ft 528 kts 49°
2026-05-07 05:06 48.09448 -66.19033 35355 ft 528 kts 49°
2026-05-07 05:06 48.14498 -66.11098 35368 ft 528 kts 49°
2026-05-07 05:07 48.19532 -66.03166 35373 ft 529 kts 49°
2026-05-07 05:07 48.24592 -65.95152 35383 ft 529 kts 50°
2026-05-07 05:08 48.29613 -65.87153 35388 ft 530 kts 49°
2026-05-07 05:08 48.34662 -65.79089 35400 ft 530 kts 49°
2026-05-07 05:09 48.39703 -65.71004 35409 ft 531 kts 49°
2026-05-07 05:09 48.44725 -65.62936 35411 ft 530 kts 49°
2026-05-07 05:10 48.49761 -65.54808 35413 ft 532 kts 49°
2026-05-07 05:10 48.54816 -65.46638 35422 ft 531 kts 49°
2026-05-07 05:11 48.59828 -65.38501 35423 ft 532 kts 49°
2026-05-07 05:11 48.64870 -65.30278 35431 ft 532 kts 50°
2026-05-07 05:12 48.69895 -65.22044 35433 ft 533 kts 50°
2026-05-07 05:12 48.74908 -65.13811 35445 ft 534 kts 50°
2026-05-07 05:13 48.79777 -65.05810 35449 ft 535 kts 50°
2026-05-07 05:13 48.84807 -64.97520 35451 ft 537 kts 50°
2026-05-07 05:14 48.89830 -64.89212 35455 ft 537 kts 50°
2026-05-07 05:14 48.94890 -64.80817 35458 ft 536 kts 50°
2026-05-07 05:15 48.99898 -64.72484 35463 ft 536 kts 50°
2026-05-07 05:15 49.04929 -64.64082 35465 ft 537 kts 50°
2026-05-07 05:16 49.09900 -64.55745 35469 ft 537 kts 49°
2026-05-07 05:16 49.14936 -64.47333 35470 ft 538 kts 50°
2026-05-07 05:17 49.19981 -64.38876 35480 ft 537 kts 50°
2026-05-07 05:17 49.24954 -64.30466 35487 ft 538 kts 50°
2026-05-07 05:18 49.29956 -64.21954 35496 ft 538 kts 51°
2026-05-07 05:18 49.34930 -64.13461 35502 ft 539 kts 50°
2026-05-07 05:19 49.39927 -64.04926 35503 ft 538 kts 51°
2026-05-07 05:19 49.44908 -63.96385 35500 ft 539 kts 50°
2026-05-07 05:20 49.49898 -63.87804 35491 ft 540 kts 50°
2026-05-07 05:20 49.54856 -63.79254 35485 ft 540 kts 50°
2026-05-07 05:21 49.62337 -63.66294 35481 ft 539 kts 50°
2026-05-07 05:22 49.67307 -63.57643 35474 ft 539 kts 50°
2026-05-07 05:22 49.72251 -63.49018 35465 ft 538 kts 50°
2026-05-07 05:23 49.77204 -63.40338 35458 ft 540 kts 50°
2026-05-07 05:23 49.82147 -63.31647 35449 ft 539 kts 51°
2026-05-07 05:24 49.87056 -63.22959 35445 ft 540 kts 51°
2026-05-07 05:24 49.92005 -63.14187 35442 ft 541 kts 51°
2026-05-07 05:25 49.96925 -63.05449 35445 ft 541 kts 51°
2026-05-07 05:25 50.01848 -62.96684 35449 ft 541 kts 50°
2026-05-07 05:26 50.06795 -62.87844 35450 ft 540 kts 50°
2026-05-07 05:26 50.11681 -62.79093 35444 ft 539 kts 50°
2026-05-07 05:27 50.16521 -62.70444 35449 ft 540 kts 50°
2026-05-07 05:27 50.21420 -62.61636 35448 ft 540 kts 51°
2026-05-07 05:28 50.26301 -62.52796 35445 ft 540 kts 50°
2026-05-07 05:28 50.31198 -62.43902 35441 ft 540 kts 51°
2026-05-07 05:29 50.35947 -62.35233 35438 ft 541 kts 51°
2026-05-07 05:29 50.40719 -62.26477 35439 ft 541 kts 51°
2026-05-07 05:30 50.45581 -62.17519 35431 ft 541 kts 51°
2026-05-07 05:30 50.50457 -62.08527 35429 ft 542 kts 51°
2026-05-07 05:31 50.55329 -61.99515 35429 ft 543 kts 51°
2026-05-07 05:31 50.60179 -61.90516 35433 ft 543 kts 51°
2026-05-07 05:32 50.65049 -61.81444 35437 ft 543 kts 51°
2026-05-07 05:32 50.69900 -61.72372 35442 ft 544 kts 51°
2026-05-07 05:33 50.74733 -61.63318 35445 ft 542 kts 51°
2026-05-07 05:33 50.79585 -61.54185 35446 ft 543 kts 51°
2026-05-07 05:34 50.84438 -61.45019 35448 ft 544 kts 51°
2026-05-07 05:34 50.89247 -61.35902 35456 ft 543 kts 51°
2026-05-07 05:35 50.94049 -61.26753 35464 ft 542 kts 52°
2026-05-07 05:35 50.98859 -61.17544 35472 ft 543 kts 52°
2026-05-07 05:36 51.03627 -61.08398 35480 ft 541 kts 52°
2026-05-07 05:36 51.08424 -60.99169 35479 ft 542 kts 52°
2026-05-07 05:37 51.13226 -60.89941 35473 ft 541 kts 51°
2026-05-07 05:37 51.18017 -60.80722 35456 ft 542 kts 52°
2026-05-07 05:38 51.22796 -60.71466 35443 ft 542 kts 52°
2026-05-07 05:38 51.27568 -60.62163 35437 ft 541 kts 52°
2026-05-07 05:39 51.32303 -60.52893 35428 ft 542 kts 52°
2026-05-07 05:39 51.37057 -60.43550 35428 ft 542 kts 52°
2026-05-07 05:40 51.41800 -60.34196 35415 ft 542 kts 53°
2026-05-07 05:40 51.46514 -60.24836 35409 ft 543 kts 53°
2026-05-07 05:41 51.51234 -60.15440 35405 ft 542 kts 53°
2026-05-07 05:41 51.55945 -60.06036 35400 ft 542 kts 53°
2026-05-07 05:42 51.60645 -59.96627 35399 ft 541 kts 53°
2026-05-07 05:42 51.65326 -59.87227 35398 ft 542 kts 53°
2026-05-07 05:43 51.69880 -59.78050 35390 ft 542 kts 53°
2026-05-07 05:43 51.74582 -59.68543 35387 ft 542 kts 53°
2026-05-07 05:44 51.79230 -59.59106 35381 ft 543 kts 53°
2026-05-07 05:44 51.83913 -59.49557 35381 ft 543 kts 53°
2026-05-07 05:45 51.88582 -59.40004 35377 ft 545 kts 53°
2026-05-07 05:45 51.93247 -59.30421 35373 ft 545 kts 54°
2026-05-07 05:46 51.97915 -59.20768 35376 ft 545 kts 53°
2026-05-07 05:46 52.02569 -59.11121 35372 ft 545 kts 54°
2026-05-07 05:47 52.07215 -59.01481 35374 ft 545 kts 54°
2026-05-07 05:47 52.11878 -58.91760 35376 ft 544 kts 53°
2026-05-07 05:48 52.16413 -58.82346 35389 ft 544 kts 53°
2026-05-07 05:48 52.20878 -58.73004 35397 ft 544 kts 53°
2026-05-07 05:49 52.25490 -58.63293 35401 ft 544 kts 53°
2026-05-07 05:49 52.30084 -58.53574 35414 ft 542 kts 53°
2026-05-07 05:50 52.34591 -58.44000 35417 ft 543 kts 53°
2026-05-07 05:50 52.39191 -58.34192 35424 ft 542 kts 54°
2026-05-07 05:51 52.43681 -58.24555 35428 ft 543 kts 54°
2026-05-07 05:51 52.48246 -58.14723 35434 ft 542 kts 54°
2026-05-07 05:52 52.52816 -58.04867 35436 ft 542 kts 54°
2026-05-07 05:52 52.57343 -57.95056 35433 ft 542 kts 54°
2026-05-07 05:53 52.61878 -57.85215 35430 ft 541 kts 54°
2026-05-07 05:53 52.66401 -57.75343 35425 ft 542 kts 54°
2026-05-07 05:54 52.70907 -57.65475 35419 ft 541 kts 54°
2026-05-07 05:54 52.75401 -57.55592 35418 ft 540 kts 53°
2026-05-07 05:55 52.79867 -57.45740 35419 ft 540 kts 54°
2026-05-07 05:55 52.84359 -57.35788 35410 ft 540 kts 54°
2026-05-07 05:56 52.88801 -57.25893 35402 ft 538 kts 55°
2026-05-07 05:56 52.93256 -57.15927 35392 ft 537 kts 55°
2026-05-07 05:57 52.97676 -57.06023 35378 ft 537 kts 54°
2026-05-07 05:57 53.02088 -56.96109 35377 ft 537 kts 54°
2026-05-07 05:58 53.06517 -56.86116 35387 ft 538 kts 54°
2026-05-07 05:58 53.10706 -56.75886 35386 ft 537 kts 61°
2026-05-07 05:59 53.14279 -56.65110 35397 ft 536 kts 64°
2026-05-07 05:59 53.17765 -56.54104 35415 ft 537 kts 64°
2026-05-07 06:00 53.21233 -56.43144 35424 ft 537 kts 64°
2026-05-07 06:00 53.24699 -56.32178 35430 ft 536 kts 65°
2026-05-07 06:01 53.28146 -56.21222 35441 ft 536 kts 64°
2026-05-07 06:01 53.31597 -56.10210 35453 ft 536 kts 64°
2026-05-07 06:02 53.35049 -55.99173 35460 ft 537 kts 64°
2026-05-07 06:02 53.38467 -55.88193 35464 ft 535 kts 64°
2026-05-07 06:03 53.41900 -55.77109 35470 ft 538 kts 64°
2026-05-07 06:03 53.45325 -55.66003 35481 ft 539 kts 64°
2026-05-07 06:04 53.48739 -55.54876 35484 ft 539 kts 64°
2026-05-07 06:04 53.52141 -55.43738 35484 ft 539 kts 64°
2026-05-07 06:05 53.55538 -55.32578 35484 ft 538 kts 65°
2026-05-07 06:05 53.58911 -55.21410 35483 ft 538 kts 65°
2026-05-07 06:06 53.62266 -55.10242 35481 ft 538 kts 65°
2026-05-07 06:06 53.65645 -54.98970 35479 ft 538 kts 65°
2026-05-07 06:07 53.68974 -54.87815 35480 ft 535 kts 64°
2026-05-07 06:07 53.72302 -54.76613 35479 ft 534 kts 64°
2026-05-07 06:08 53.75614 -54.65411 35479 ft 534 kts 65°
2026-05-07 06:08 53.78894 -54.54265 35487 ft 533 kts 64°
2026-05-07 06:09 53.82168 -54.43084 35496 ft 534 kts 64°
2026-05-07 06:09 53.85412 -54.31958 35501 ft 534 kts 65°
2026-05-07 06:10 53.88651 -54.20771 35511 ft 533 kts 65°
2026-05-07 06:10 53.91901 -54.09490 35521 ft 532 kts 65°
2026-05-07 06:11 53.95067 -53.98476 35527 ft 530 kts 65°
2026-05-07 06:11 53.98283 -53.87222 35530 ft 530 kts 64°
2026-05-07 06:12 54.01468 -53.76034 35531 ft 528 kts 64°
2026-05-07 06:12 54.04658 -53.64787 35532 ft 528 kts 64°
2026-05-07 06:13 54.07820 -53.53575 35536 ft 528 kts 64°
2026-05-07 06:13 54.10957 -53.42397 35535 ft 527 kts 64°
2026-05-07 06:14 54.14145 -53.31102 35539 ft 528 kts 65°
2026-05-07 06:14 54.17265 -53.19907 35545 ft 528 kts 65°
2026-05-07 06:15 54.20375 -53.08650 35549 ft 526 kts 65°
2026-05-07 06:15 54.23486 -52.97344 35557 ft 526 kts 65°
2026-05-07 06:16 54.26578 -52.86046 35564 ft 526 kts 65°
2026-05-07 06:16 54.29639 -52.74806 35577 ft 524 kts 65°
2026-05-07 06:17 54.32689 -52.63561 35587 ft 525 kts 65°
2026-05-07 06:17 54.35664 -52.52539 35596 ft 524 kts 65°
2026-05-07 06:18 54.38701 -52.41230 35608 ft 524 kts 65°
2026-05-07 06:18 54.41733 -52.29879 35616 ft 523 kts 66°
2026-05-07 06:19 54.44727 -52.18584 35630 ft 522 kts 66°
2026-05-07 06:19 54.47705 -52.07305 35635 ft 522 kts 65°
2026-05-07 06:20 54.50695 -51.95935 35645 ft 521 kts 65°
2026-05-07 06:20 54.53649 -51.84658 35651 ft 521 kts 65°
2026-05-07 06:21 54.56610 -51.73305 35660 ft 520 kts 65°
2026-05-07 06:21 54.59480 -51.62234 35666 ft 521 kts 65°
2026-05-07 06:22 54.62410 -51.50873 35670 ft 520 kts 65°
2026-05-07 06:22 54.66787 -51.33810 35677 ft 518 kts 66°
2026-05-07 06:23 54.69667 -51.22471 35683 ft 518 kts 65°
2026-05-07 06:23 54.72541 -51.11121 35686 ft 518 kts 66°
2026-05-07 06:24 54.75393 -50.99798 35687 ft 518 kts 66°
2026-05-07 06:24 54.78258 -50.88378 35687 ft 517 kts 65°
2026-05-07 06:25 54.81113 -50.76954 35676 ft 518 kts 65°
2026-05-07 06:25 54.83937 -50.65578 35679 ft 516 kts 65°
2026-05-07 06:26 54.86750 -50.54198 35672 ft 516 kts 65°
2026-05-07 06:26 54.89550 -50.42818 35671 ft 515 kts 65°
2026-05-07 06:27 54.92345 -50.31402 35666 ft 514 kts 66°
2026-05-07 06:27 54.95129 -50.19960 35663 ft 514 kts 66°
2026-05-07 06:28 54.97875 -50.08621 35655 ft 514 kts 66°
2026-05-07 06:28 55.00346 -49.96901 35654 ft 516 kts 73°
2026-05-07 06:29 55.02133 -49.84887 35655 ft 514 kts 76°
2026-05-07 06:29 55.03785 -49.73005 35660 ft 515 kts 76°
2026-05-07 06:30 55.05473 -49.60909 35662 ft 515 kts 75°
2026-05-07 06:30 55.07117 -49.49118 35661 ft 514 kts 75°
2026-05-07 06:31 55.08792 -49.37059 35661 ft 513 kts 75°
2026-05-07 06:31 55.10451 -49.25049 35666 ft 513 kts 76°
2026-05-07 06:32 55.12125 -49.13013 35668 ft 511 kts 76°
2026-05-07 06:32 55.13780 -49.00934 35666 ft 511 kts 76°
2026-05-07 06:33 55.15404 -48.88909 35694 ft 512 kts 76°
2026-05-07 06:33 55.16956 -48.77288 35700 ft 510 kts 76°
2026-05-07 06:34 55.18553 -48.65243 35724 ft 511 kts 76°
2026-05-07 06:34 55.20125 -48.53272 35751 ft 509 kts 76°
2026-05-07 06:35 55.21693 -48.41243 35761 ft 509 kts 76°
2026-05-07 06:35 55.23247 -48.29197 35781 ft 507 kts 76°
2026-05-07 06:36 55.24780 -48.17182 35805 ft 507 kts 76°
2026-05-07 06:36 55.26303 -48.05172 35827 ft 506 kts 77°
2026-05-07 06:37 55.27811 -47.93211 35834 ft 505 kts 77°
2026-05-07 06:37 55.29307 -47.81200 35846 ft 506 kts 76°
2026-05-07 06:38 55.30788 -47.69239 35856 ft 505 kts 76°
2026-05-07 06:38 55.32263 -47.57227 35871 ft 505 kts 76°
2026-05-07 06:39 55.33725 -47.45217 35876 ft 505 kts 76°
2026-05-07 06:39 55.35169 -47.33223 35888 ft 504 kts 77°
2026-05-07 06:40 55.36602 -47.21210 35893 ft 504 kts 77°
2026-05-07 06:40 55.38018 -47.09218 35911 ft 503 kts 77°
2026-05-07 06:41 55.39426 -46.97218 35913 ft 503 kts 76°
2026-05-07 06:41 55.40819 -46.85245 35929 ft 504 kts 77°
2026-05-07 06:42 55.42205 -46.73215 35931 ft 502 kts 76°
2026-05-07 06:42 55.43578 -46.61190 35935 ft 502 kts 76°
2026-05-07 06:43 55.44938 -46.49170 35939 ft 502 kts 76°
2026-05-07 06:43 55.46273 -46.37241 35944 ft 501 kts 76°
2026-05-07 06:44 55.47605 -46.25255 35948 ft 501 kts 77°
2026-05-07 06:44 55.48924 -46.13221 35951 ft 500 kts 77°
2026-05-07 06:45 55.50231 -46.01220 35963 ft 500 kts 77°
2026-05-07 06:45 55.51487 -45.89563 35970 ft 499 kts 76°
2026-05-07 06:46 55.52764 -45.77606 35980 ft 498 kts 76°
2026-05-07 06:46 55.54033 -45.65643 35990 ft 499 kts 76°
2026-05-07 06:47 55.55296 -45.53583 36001 ft 500 kts 76°
2026-05-07 06:47 55.56537 -45.41611 36007 ft 499 kts 76°
2026-05-07 06:48 55.57768 -45.29621 36013 ft 500 kts 77°
2026-05-07 06:48 55.58985 -45.17609 36023 ft 500 kts 77°
2026-05-07 06:49 55.60194 -45.05574 36035 ft 500 kts 77°
2026-05-07 06:49 55.61398 -44.93467 36035 ft 500 kts 77°
2026-05-07 06:50 55.62585 -44.81418 36053 ft 498 kts 77°
2026-05-07 06:50 55.63760 -44.69372 36071 ft 498 kts 77°
2026-05-07 06:51 55.64917 -44.57384 36081 ft 499 kts 77°
2026-05-07 06:51 55.66069 -44.45302 36097 ft 498 kts 77°
2026-05-07 06:52 55.67201 -44.33306 36107 ft 497 kts 77°
2026-05-07 06:52 55.68329 -44.21210 36118 ft 497 kts 77°
2026-05-07 06:53 55.69437 -44.09179 36132 ft 497 kts 77°
2026-05-07 06:53 55.70535 -43.97155 36146 ft 496 kts 77°
2026-05-07 06:54 55.71620 -43.85107 36158 ft 497 kts 77°
2026-05-07 06:54 55.72694 -43.73071 36167 ft 496 kts 77°
2026-05-07 06:55 55.73758 -43.61024 36173 ft 496 kts 77°
2026-05-07 06:55 55.74805 -43.48996 36181 ft 496 kts 77°
2026-05-07 06:56 55.75844 -43.36939 36187 ft 497 kts 77°
2026-05-07 06:56 55.76868 -43.24887 36193 ft 496 kts 78°
2026-05-07 06:57 55.77866 -43.13000 36204 ft 496 kts 78°
2026-05-07 06:57 55.78869 -43.00921 36213 ft 496 kts 77°
2026-05-07 06:58 55.79860 -42.88824 36213 ft 495 kts 77°
2026-05-07 06:58 55.80826 -42.76922 36210 ft 495 kts 77°
2026-05-07 06:59 55.81786 -42.64895 36208 ft 494 kts 77°
2026-05-07 06:59 55.82740 -42.52854 36206 ft 493 kts 77°
2026-05-07 07:00 55.83678 -42.40831 36208 ft 493 kts 77°
2026-05-07 07:00 55.84601 -42.28833 36201 ft 492 kts 77°
2026-05-07 07:01 55.85507 -42.16868 36202 ft 491 kts 77°
2026-05-07 07:01 55.86369 -42.05360 36199 ft 491 kts 77°
2026-05-07 07:02 55.87262 -41.93322 36206 ft 489 kts 77°
2026-05-07 07:02 55.88135 -41.81390 36217 ft 490 kts 77°
2026-05-07 07:03 55.88998 -41.69392 36222 ft 490 kts 77°
2026-05-07 07:03 55.89847 -41.57471 36230 ft 488 kts 77°
2026-05-07 07:04 55.90682 -41.45562 36233 ft 488 kts 77°
2026-05-07 07:04 55.91512 -41.33546 36239 ft 488 kts 78°
2026-05-07 07:05 55.92319 -41.21646 36244 ft 488 kts 78°
2026-05-07 07:05 55.93122 -41.09633 36251 ft 488 kts 77°
2026-05-07 07:06 55.93911 -40.97702 36257 ft 488 kts 78°
2026-05-07 07:06 55.94690 -40.85759 36257 ft 488 kts 77°
2026-05-07 07:07 55.95462 -40.73728 36257 ft 488 kts 77°
2026-05-07 07:07 55.96218 -40.61748 36252 ft 488 kts 77°
2026-05-07 07:08 55.96961 -40.49824 36250 ft 487 kts 77°
2026-05-07 07:08 55.97702 -40.37812 36251 ft 488 kts 77°
2026-05-07 07:09 55.98425 -40.25892 36249 ft 487 kts 78°
2026-05-07 07:09 55.99138 -40.13871 36251 ft 486 kts 78°
2026-05-07 07:10 55.99916 -40.01882 36255 ft 486 kts 74°
2026-05-07 07:10 56.01265 -39.90225 36247 ft 479 kts 69°
2026-05-07 07:11 56.02907 -39.78705 36236 ft 478 kts 68°
2026-05-07 07:11 56.04546 -39.67230 36235 ft 479 kts 68°
2026-05-07 07:12 56.06160 -39.55761 36229 ft 477 kts 68°
2026-05-07 07:12 56.07765 -39.44266 36221 ft 479 kts 69°
2026-05-07 07:13 56.09355 -39.32757 36210 ft 477 kts 69°
2026-05-07 07:13 56.10936 -39.21261 36213 ft 477 kts 69°
2026-05-07 07:14 56.12534 -39.09692 36209 ft 478 kts 69°
2026-05-07 07:14 56.14095 -38.98231 36198 ft 477 kts 69°
2026-05-07 07:15 56.15638 -38.86735 36192 ft 477 kts 69°
2026-05-07 07:15 56.17181 -38.75153 36186 ft 478 kts 69°
2026-05-07 07:16 56.18690 -38.63699 36180 ft 476 kts 69°
2026-05-07 07:16 56.20204 -38.52157 36173 ft 476 kts 69°
2026-05-07 07:17 56.21713 -38.40549 36170 ft 478 kts 69°
2026-05-07 07:17 56.23201 -38.28987 36164 ft 478 kts 70°
2026-05-07 07:18 56.24629 -38.17755 36166 ft 477 kts 70°
2026-05-07 07:18 56.26093 -38.06187 36151 ft 476 kts 70°
2026-05-07 07:19 56.27550 -37.94606 36147 ft 476 kts 70°
2026-05-07 07:19 56.28967 -37.83228 36150 ft 476 kts 70°
2026-05-07 07:20 56.30401 -37.71639 36154 ft 476 kts 70°
2026-05-07 07:20 56.31838 -37.59946 36153 ft 478 kts 70°
2026-05-07 07:21 56.33251 -37.48341 36158 ft 478 kts 70°
2026-05-07 07:21 56.34656 -37.36682 36152 ft 477 kts 70°
2026-05-07 07:22 56.36054 -37.24984 36153 ft 479 kts 71°
2026-05-07 07:22 56.37407 -37.13523 36158 ft 479 kts 71°
2026-05-07 07:23 56.38789 -37.01761 36158 ft 480 kts 70°
2026-05-07 07:23 56.40145 -36.90102 36144 ft 479 kts 70°
2026-05-07 07:24 56.41505 -36.78345 36128 ft 480 kts 70°
2026-05-07 07:24 56.42847 -36.66609 36111 ft 478 kts 70°
2026-05-07 07:25 56.44845 -36.48991 36092 ft 480 kts 70°
2026-05-07 07:26 56.46163 -36.37217 36077 ft 479 kts 70°
2026-05-07 07:26 56.47463 -36.25468 36063 ft 480 kts 71°
2026-05-07 07:27 56.48760 -36.13630 36053 ft 481 kts 71°
2026-05-07 07:27 56.50042 -36.01833 36041 ft 480 kts 71°
2026-05-07 07:28 56.51310 -35.90064 36002 ft 480 kts 71°
2026-05-07 07:28 56.52584 -35.78148 35972 ft 483 kts 71°
2026-05-07 07:29 56.53840 -35.66293 35957 ft 484 kts 71°
2026-05-07 07:29 56.55069 -35.54549 35912 ft 482 kts 71°
2026-05-07 07:30 56.56308 -35.42617 35886 ft 485 kts 71°
2026-05-07 07:30 56.57538 -35.30647 35835 ft 486 kts 72°
2026-05-07 07:31 56.58750 -35.18661 35832 ft 486 kts 72°
2026-05-07 07:31 56.59960 -35.06634 35802 ft 487 kts 72°
2026-05-07 07:32 56.61163 -34.94545 35774 ft 489 kts 71°
2026-05-07 07:32 56.62349 -34.82509 35763 ft 487 kts 71°
2026-05-07 07:33 56.63526 -34.70437 35728 ft 489 kts 71°
2026-05-07 07:33 56.64697 -34.58329 35711 ft 489 kts 71°
2026-05-07 07:34 56.65861 -34.46162 35677 ft 490 kts 71°
2026-05-07 07:34 56.67003 -34.34055 35677 ft 489 kts 72°
2026-05-07 07:35 56.68137 -34.21888 35657 ft 490 kts 72°
2026-05-07 07:35 56.69262 -34.09684 35630 ft 491 kts 72°
2026-05-07 07:36 56.70335 -33.97955 35592 ft 492 kts 72°
2026-05-07 07:36 56.71441 -33.85693 35579 ft 491 kts 72°
2026-05-07 07:37 56.72537 -33.73466 35573 ft 492 kts 72°
2026-05-07 07:37 56.73615 -33.61256 35540 ft 492 kts 72°
2026-05-07 07:38 56.74686 -33.48980 35515 ft 490 kts 72°
2026-05-07 07:38 56.75737 -33.36810 35488 ft 492 kts 71°
2026-05-07 07:39 56.76783 -33.24518 35730 ft 491 kts 72°
2026-05-07 07:39 56.77800 -33.12367 35725 ft 487 kts 72°
2026-05-07 07:40 56.78811 -33.00233 35702 ft 488 kts 72°
2026-05-07 07:40 56.79808 -32.88107 35683 ft 487 kts 72°
2026-05-07 07:41 56.80805 -32.75863 35637 ft 486 kts 72°
2026-05-07 07:41 56.81776 -32.63756 35634 ft 486 kts 72°
2026-05-07 07:42 56.82743 -32.51556 35602 ft 488 kts 72°
2026-05-07 07:42 56.83691 -32.39408 35572 ft 485 kts 72°
2026-05-07 07:43 56.84631 -32.27217 35561 ft 488 kts 73°
2026-05-07 07:43 56.85555 -32.15036 35506 ft 485 kts 73°
2026-05-07 07:44 56.86467 -32.02853 35494 ft 486 kts 73°
2026-05-07 07:44 56.87363 -31.90844 35456 ft 488 kts 74°
2026-05-07 07:45 56.88251 -31.78631 35456 ft 486 kts 73°
2026-05-07 07:45 56.89135 -31.66377 35422 ft 486 kts 73°
2026-05-07 07:46 56.90003 -31.54197 35389 ft 487 kts 74°
2026-05-07 07:46 56.90868 -31.41914 35366 ft 489 kts 74°
2026-05-07 07:47 56.91719 -31.29598 35328 ft 490 kts 75°
2026-05-07 07:47 56.92539 -31.17463 35326 ft 490 kts 75°
2026-05-07 07:48 56.93367 -31.05097 35291 ft 490 kts 75°
2026-05-07 07:48 56.94178 -30.92825 35267 ft 488 kts 75°
2026-05-07 07:49 56.94982 -30.80502 35230 ft 489 kts 76°
2026-05-07 07:49 56.95768 -30.68234 35216 ft 487 kts 76°
2026-05-07 07:50 56.96546 -30.55963 35200 ft 489 kts 76°
2026-05-07 07:50 56.97317 -30.43603 35186 ft 487 kts 76°
2026-05-07 07:51 56.98066 -30.31388 35167 ft 488 kts 77°
2026-05-07 07:51 56.98815 -30.19037 35138 ft 489 kts 77°
2026-05-07 07:52 56.99549 -30.06718 35123 ft 490 kts 77°
2026-05-07 07:52 57.00212 -29.94311 35098 ft 491 kts 79°
2026-05-07 07:53 57.00660 -29.81782 35093 ft 491 kts 80°
2026-05-07 07:53 57.01085 -29.69669 35083 ft 491 kts 80°
2026-05-07 07:54 57.01531 -29.57262 35069 ft 492 kts 79°
2026-05-07 07:54 57.01974 -29.44812 35058 ft 490 kts 80°
2026-05-07 07:55 57.02412 -29.32306 35046 ft 490 kts 81°
2026-05-07 07:55 57.02831 -29.19910 35035 ft 491 kts 81°
2026-05-07 07:56 57.03241 -29.07447 35023 ft 490 kts 81°
2026-05-07 07:56 57.03638 -28.95011 35016 ft 490 kts 81°
2026-05-07 07:57 57.04023 -28.82585 35004 ft 491 kts 81°
2026-05-07 07:57 57.04401 -28.70091 34992 ft 491 kts 81°
2026-05-07 07:58 57.04763 -28.57592 34980 ft 491 kts 81°
2026-05-07 07:58 57.05111 -28.45178 34970 ft 492 kts 81°
2026-05-07 07:59 57.05447 -28.32692 34957 ft 492 kts 82°
2026-05-07 07:59 57.05772 -28.20151 34944 ft 493 kts 82°
2026-05-07 08:00 57.06084 -28.07672 34933 ft 493 kts 82°
2026-05-07 08:00 57.06385 -27.95112 34925 ft 494 kts 83°
2026-05-07 08:01 57.06675 -27.82533 34914 ft 494 kts 83°
2026-05-07 08:01 57.06952 -27.69960 34903 ft 494 kts 83°
2026-05-07 08:02 57.07215 -27.57399 34891 ft 493 kts 83°
2026-05-07 08:02 57.07466 -27.44867 34883 ft 493 kts 83°
2026-05-07 08:03 57.07705 -27.32345 34872 ft 494 kts 84°
2026-05-07 08:03 57.07928 -27.19856 34862 ft 494 kts 84°
2026-05-07 08:04 57.08141 -27.07285 34855 ft 494 kts 84°
2026-05-07 08:04 57.08342 -26.94655 34851 ft 493 kts 84°
2026-05-07 08:05 57.08525 -26.82426 34840 ft 493 kts 84°
2026-05-07 08:05 57.08701 -26.69920 34833 ft 493 kts 84°
2026-05-07 08:06 57.08864 -26.57402 34820 ft 493 kts 84°
2026-05-07 08:06 57.09016 -26.44820 34811 ft 493 kts 84°
2026-05-07 08:07 57.09155 -26.32304 34800 ft 493 kts 85°
2026-05-07 08:07 57.09280 -26.19685 34793 ft 493 kts 85°
2026-05-07 08:08 57.09392 -26.07110 34780 ft 494 kts 85°
2026-05-07 08:08 57.09493 -25.94614 34772 ft 494 kts 85°
2026-05-07 08:09 57.09581 -25.82002 34768 ft 494 kts 85°
2026-05-07 08:09 57.09658 -25.69423 34768 ft 494 kts 85°
2026-05-07 08:10 57.09721 -25.56818 34768 ft 493 kts 85°
2026-05-07 08:10 57.09771 -25.44344 34762 ft 493 kts 85°
2026-05-07 08:11 57.09810 -25.31726 34760 ft 493 kts 86°
2026-05-07 08:11 57.09834 -25.19375 34757 ft 494 kts 86°
2026-05-07 08:12 57.09847 -25.06869 34759 ft 495 kts 87°
2026-05-07 08:12 57.09847 -24.94246 34753 ft 495 kts 87°
2026-05-07 08:13 57.09833 -24.81657 34755 ft 495 kts 87°
2026-05-07 08:13 57.09809 -24.69037 34750 ft 494 kts 87°
2026-05-07 08:14 57.09773 -24.56456 34747 ft 494 kts 87°
2026-05-07 08:14 57.09724 -24.43864 34743 ft 494 kts 87°
2026-05-07 08:15 57.09661 -24.31359 34741 ft 494 kts 88°
2026-05-07 08:15 57.09586 -24.18780 34738 ft 494 kts 88°
2026-05-07 08:16 57.09497 -24.06126 34733 ft 495 kts 88°
2026-05-07 08:16 57.09398 -23.93526 34729 ft 495 kts 88°
2026-05-07 08:17 57.09285 -23.81002 34725 ft 495 kts 88°
2026-05-07 08:17 57.09159 -23.68404 34721 ft 495 kts 88°
2026-05-07 08:18 57.09021 -23.55783 34717 ft 495 kts 88°
2026-05-07 08:18 57.08871 -23.43193 34713 ft 495 kts 88°
2026-05-07 08:19 57.08707 -23.30589 34707 ft 496 kts 89°
2026-05-07 08:19 57.08529 -23.17895 34704 ft 496 kts 89°
2026-05-07 08:20 57.08339 -23.05272 34702 ft 496 kts 89°
2026-05-07 08:20 57.08139 -22.92729 34698 ft 496 kts 89°
2026-05-07 08:21 57.07925 -22.80124 34701 ft 496 kts 90°
2026-05-07 08:21 57.07698 -22.67508 34702 ft 496 kts 90°
2026-05-07 08:22 57.07457 -22.54866 34703 ft 496 kts 90°
2026-05-07 08:22 57.07204 -22.42245 34708 ft 496 kts 90°
2026-05-07 08:23 57.06945 -22.29843 34705 ft 496 kts 91°
2026-05-07 08:23 57.06668 -22.17250 34708 ft 497 kts 91°
2026-05-07 08:24 57.06378 -22.04644 34712 ft 497 kts 91°
2026-05-07 08:24 57.06075 -21.92014 34710 ft 497 kts 91°
2026-05-07 08:25 57.05760 -21.79406 34706 ft 497 kts 91°
2026-05-07 08:25 57.05430 -21.66732 34702 ft 497 kts 91°
2026-05-07 08:26 57.04913 -21.47789 34696 ft 499 kts 91°
2026-05-07 08:26 57.04551 -21.35067 34691 ft 499 kts 91°
2026-05-07 08:27 57.04179 -21.22450 34689 ft 499 kts 92°
2026-05-07 08:27 57.03791 -21.09749 34682 ft 499 kts 92°
2026-05-07 08:28 57.03394 -20.97115 34678 ft 498 kts 92°
2026-05-07 08:28 57.02982 -20.84438 34669 ft 498 kts 92°
2026-05-07 08:29 57.02558 -20.71784 34660 ft 499 kts 92°
2026-05-07 08:29 57.02123 -20.59114 34654 ft 500 kts 92°
2026-05-07 08:30 57.01679 -20.46472 34639 ft 501 kts 92°
2026-05-07 08:30 57.01220 -20.33682 34633 ft 502 kts 93°
2026-05-07 08:31 57.00754 -20.20980 34623 ft 502 kts 94°
2026-05-07 08:31 57.00212 -20.08483 34613 ft 502 kts 96°
2026-05-07 08:32 56.98986 -19.95897 34609 ft 501 kts 103°
2026-05-07 08:32 56.97032 -19.83779 34618 ft 502 kts 108°
2026-05-07 08:33 56.94867 -19.71689 34631 ft 502 kts 108°
2026-05-07 08:33 56.92690 -19.59561 34631 ft 502 kts 108°
2026-05-07 08:34 56.90518 -19.47489 34653 ft 502 kts 108°
2026-05-07 08:34 56.88335 -19.35421 34652 ft 502 kts 108°
2026-05-07 08:35 56.86142 -19.23334 34665 ft 502 kts 109°
2026-05-07 08:35 56.83935 -19.11253 34676 ft 502 kts 109°
2026-05-07 08:36 56.81726 -18.99257 34677 ft 501 kts 109°
2026-05-07 08:36 56.79510 -18.87298 34685 ft 501 kts 109°
2026-05-07 08:37 56.77269 -18.75286 34686 ft 500 kts 110°
2026-05-07 08:37 56.75024 -18.63331 34693 ft 501 kts 110°
2026-05-07 08:38 56.72781 -18.51462 34699 ft 501 kts 110°
2026-05-07 08:38 56.70503 -18.39483 34689 ft 501 kts 110°
2026-05-07 08:39 56.68219 -18.27527 34702 ft 501 kts 111°
2026-05-07 08:39 56.65968 -18.15803 34710 ft 502 kts 111°
2026-05-07 08:40 56.63659 -18.03872 34729 ft 502 kts 111°
2026-05-07 08:40 56.61380 -17.92172 34735 ft 501 kts 111°
2026-05-07 08:41 56.59063 -17.80352 34749 ft 500 kts 111°
2026-05-07 08:41 56.56727 -17.68512 34739 ft 499 kts 111°
2026-05-07 08:42 56.54396 -17.56766 34748 ft 499 kts 111°
2026-05-07 08:42 56.52037 -17.44944 34762 ft 499 kts 111°
2026-05-07 08:43 56.49690 -17.33252 34793 ft 498 kts 112°
2026-05-07 08:43 56.47330 -17.21538 34783 ft 498 kts 112°
2026-05-07 08:44 56.44944 -17.09772 34784 ft 498 kts 113°
2026-05-07 08:44 56.42550 -16.98051 34808 ft 498 kts 113°
2026-05-07 08:45 56.40152 -16.86397 34823 ft 498 kts 113°
2026-05-07 08:45 56.37759 -16.74822 34832 ft 497 kts 113°
2026-05-07 08:46 56.35334 -16.63161 34836 ft 496 kts 113°
2026-05-07 08:46 56.32909 -16.51568 34853 ft 495 kts 113°
2026-05-07 08:47 56.30484 -16.40036 34881 ft 494 kts 113°
2026-05-07 08:47 56.28065 -16.28589 34899 ft 492 kts 114°
2026-05-07 08:48 56.25623 -16.17079 34911 ft 492 kts 114°
2026-05-07 08:48 56.23195 -16.05716 34918 ft 491 kts 114°
2026-05-07 08:49 56.20781 -15.94490 34933 ft 492 kts 114°
2026-05-07 08:49 56.18332 -15.83157 34960 ft 491 kts 114°
2026-05-07 08:50 56.15853 -15.71751 34972 ft 490 kts 114°
2026-05-07 08:50 56.13389 -15.60473 34981 ft 489 kts 115°
2026-05-07 08:51 56.10901 -15.49140 35008 ft 488 kts 115°
2026-05-07 08:51 56.08418 -15.37890 35036 ft 487 kts 115°
2026-05-07 08:52 56.05932 -15.26642 35043 ft 487 kts 115°
2026-05-07 08:52 56.03490 -15.15648 35090 ft 486 kts 115°
2026-05-07 08:53 56.01448 -15.04101 35141 ft 489 kts 107°
2026-05-07 08:53 56.00241 -14.92141 35137 ft 494 kts 99°
2026-05-07 08:54 55.99899 -14.79925 35150 ft 498 kts 93°
2026-05-07 08:54 55.99962 -14.67587 35158 ft 499 kts 92°
2026-05-07 08:55 56.00015 -14.55313 35179 ft 499 kts 93°
2026-05-07 08:55 56.00032 -14.43190 35179 ft 498 kts 93°
2026-05-07 08:56 56.00036 -14.30914 35174 ft 497 kts 94°
2026-05-07 08:56 56.00021 -14.18679 35171 ft 498 kts 94°
2026-05-07 08:57 55.99777 -14.06386 35188 ft 494 kts 100°
2026-05-07 08:57 55.98753 -13.94376 35211 ft 489 kts 107°
2026-05-07 08:58 55.96992 -13.82797 35245 ft 484 kts 112°
2026-05-07 08:58 55.95016 -13.71505 35293 ft 484 kts 112°
2026-05-07 08:59 55.93025 -13.60115 35340 ft 483 kts 112°
2026-05-07 08:59 55.91104 -13.49167 35354 ft 483 kts 112°
2026-05-07 09:00 55.89101 -13.37831 35392 ft 483 kts 112°
2026-05-07 09:00 55.87076 -13.26522 35417 ft 481 kts 114°
2026-05-07 09:01 55.85052 -13.15203 35441 ft 479 kts 114°
2026-05-07 09:01 55.83038 -13.03969 35480 ft 480 kts 114°
2026-05-07 09:02 55.81016 -12.92762 35501 ft 479 kts 114°
2026-05-07 09:02 55.78971 -12.81478 35512 ft 479 kts 114°
2026-05-07 09:03 55.76926 -12.70264 35531 ft 477 kts 114°
2026-05-07 09:03 55.74886 -12.59147 35553 ft 478 kts 114°
2026-05-07 09:04 55.72821 -12.47982 35566 ft 478 kts 114°
2026-05-07 09:04 55.70795 -12.37071 35578 ft 476 kts 115°
2026-05-07 09:05 55.68725 -12.25961 35588 ft 477 kts 115°
2026-05-07 09:05 55.66642 -12.14842 35602 ft 476 kts 115°
2026-05-07 09:06 55.64553 -12.03783 35613 ft 476 kts 115°
2026-05-07 09:06 55.62453 -11.92740 35630 ft 475 kts 115°
2026-05-07 09:07 55.60346 -11.81720 35652 ft 474 kts 115°
2026-05-07 09:07 55.58304 -11.71095 35657 ft 472 kts 115°
2026-05-07 09:08 55.57244 -11.65610 35501 ft 474 kts 115°
2026-05-07 09:08 55.56171 -11.60075 35503 ft 473 kts 115°
2026-05-07 09:08 55.54042 -11.49125 35516 ft 473 kts 115°
2026-05-07 09:09 55.51907 -11.38212 35524 ft 473 kts 115°
2026-05-07 09:09 55.49764 -11.27279 35544 ft 469 kts 116°
2026-05-07 09:10 55.47681 -11.16711 35550 ft 469 kts 116°
2026-05-07 09:10 55.45561 -11.06037 35561 ft 469 kts 116°
2026-05-07 09:11 55.43398 -10.95221 35573 ft 467 kts 116°
2026-05-07 09:11 55.41248 -10.84514 35602 ft 466 kts 116°
2026-05-07 09:12 55.39093 -10.73852 35613 ft 466 kts 116°
2026-05-07 09:12 55.36916 -10.63132 35622 ft 464 kts 115°
2026-05-07 09:13 55.34750 -10.52517 35629 ft 465 kts 115°
2026-05-07 09:13 55.32598 -10.42028 35650 ft 465 kts 115°
2026-05-07 09:14 55.30415 -10.31419 35650 ft 464 kts 116°
2026-05-07 09:14 55.28238 -10.20856 35676 ft 463 kts 116°
2026-05-07 09:15 55.26041 -10.10278 35691 ft 462 kts 116°
2026-05-07 09:15 55.23927 -10.00093 35707 ft 463 kts 115°
2026-05-07 09:16 55.22030 -9.89582 35722 ft 464 kts 113°
2026-05-07 09:16 55.20119 -9.78781 35724 ft 464 kts 112°
2026-05-07 09:17 55.18227 -9.68116 35744 ft 463 kts 112°
2026-05-07 09:17 55.16311 -9.57379 35755 ft 463 kts 112°
2026-05-07 09:18 55.14397 -9.46706 35767 ft 462 kts 112°
2026-05-07 09:18 55.12506 -9.36223 35783 ft 462 kts 112°
2026-05-07 09:19 55.10581 -9.25566 35789 ft 461 kts 113°
2026-05-07 09:19 55.08643 -9.14923 35798 ft 461 kts 113°
2026-05-07 09:20 55.06705 -9.04347 35787 ft 461 kts 113°
2026-05-07 09:20 55.04752 -8.93761 35805 ft 460 kts 113°
2026-05-07 09:21 55.02806 -8.83277 35828 ft 460 kts 112°
2026-05-07 09:21 55.00837 -8.72719 35836 ft 460 kts 112°
2026-05-07 09:22 54.98858 -8.62172 35844 ft 459 kts 112°
2026-05-07 09:22 54.96870 -8.51641 35851 ft 460 kts 112°
2026-05-07 09:23 54.94886 -8.41187 35855 ft 459 kts 112°
2026-05-07 09:23 54.92887 -8.30706 35855 ft 459 kts 113°
2026-05-07 09:24 54.90878 -8.20195 35860 ft 457 kts 113°
2026-05-07 09:24 54.88870 -8.09819 35862 ft 457 kts 113°
2026-05-07 09:25 54.86815 -7.99359 35861 ft 456 kts 113°
2026-05-07 09:25 54.84779 -7.88987 35867 ft 456 kts 113°
2026-05-07 09:26 54.82744 -7.78632 35878 ft 456 kts 112°
2026-05-07 09:26 54.80698 -7.68262 35885 ft 455 kts 112°
2026-05-07 09:27 54.78661 -7.57984 35895 ft 455 kts 112°
2026-05-07 09:28 54.75573 -7.42503 35903 ft 455 kts 112°
2026-05-07 09:28 54.73506 -7.32210 35906 ft 454 kts 113°
2026-05-07 09:29 54.71444 -7.21952 35911 ft 454 kts 113°
2026-05-07 09:29 54.69364 -7.11672 35913 ft 454 kts 113°
2026-05-07 09:30 54.67284 -7.01468 35916 ft 453 kts 113°
2026-05-07 09:30 54.65258 -6.91584 35917 ft 454 kts 113°
2026-05-07 09:31 54.63150 -6.81348 35916 ft 453 kts 113°
2026-05-07 09:31 54.61034 -6.71135 35917 ft 453 kts 112°
2026-05-07 09:32 54.58923 -6.60991 35919 ft 452 kts 112°
2026-05-07 09:32 54.56799 -6.50831 35924 ft 452 kts 112°
2026-05-07 09:33 54.54660 -6.40655 35930 ft 452 kts 112°
2026-05-07 09:33 54.52525 -6.30542 35934 ft 452 kts 113°
2026-05-07 09:34 54.50375 -6.20387 35936 ft 452 kts 113°
2026-05-07 09:34 54.48238 -6.10353 35940 ft 451 kts 113°
2026-05-07 09:35 54.46074 -6.00254 35939 ft 451 kts 113°
2026-05-07 09:35 54.43903 -5.90177 35937 ft 450 kts 113°
2026-05-07 09:36 54.41736 -5.80174 35934 ft 452 kts 113°
2026-05-07 09:36 54.39540 -5.70085 35933 ft 452 kts 113°
2026-05-07 09:37 54.37349 -5.60062 35933 ft 452 kts 112°
2026-05-07 09:37 54.35142 -5.50020 35937 ft 451 kts 112°
2026-05-07 09:38 54.32921 -5.39957 35935 ft 451 kts 112°
2026-05-07 09:38 54.30704 -5.29955 35935 ft 451 kts 113°
2026-05-07 09:39 54.28486 -5.19976 35938 ft 451 kts 113°
2026-05-07 09:39 54.26265 -5.10041 35943 ft 451 kts 113°